Location: Sydney
(46.1500°N, 60.1670°W)
Time: 04:23:56
(UTC-03:00)

Iridium 90 - Visible Passes

Search period start: 31 July 2014 00:00
Search period end: 10 August 2014 00:00
Orbit: 748 x 749 km, 86.4° (Epoch: 30 July)

Date Brightness Start Highest point End Pass type
(mag) Time Alt. Az. Time Alt. Az. Time Alt. Az.
31 Jul 8.5 22:26:23 10° WNW 22:27:42 11° WNW 22:29:01 10° W visible
01 Aug 7.9 21:42:11 10° NNW 21:46:08 23° W 21:50:04 10° SW visible
02 Aug 6.6 20:59:30 10° NNW 21:04:22 48° W 21:09:12 10° SSW visible
03 Aug 8.4 21:59:22 10° NW 22:01:46 14° WNW 22:04:10 10° WSW visible
04 Aug 7.6 21:15:53 10° NNW 21:20:09 28° W 21:24:24 10° SW visible
06 Aug 8.3 21:32:45 10° NW 21:35:50 16° WNW 21:38:54 10° WSW visible
07 Aug 7.4 20:49:38 10° NNW 20:54:09 34° W 20:58:39 10° SSW visible
09 Aug 8.2 21:06:17 10° NNW 21:09:52 20° WNW 21:13:26 10° SW visible
